sat.trackr.live / text

‹ back to catalog

STARLINK-11486 [DTC]

NORAD 62467 · 2024-254F

PAYLOAD ACTIVE UNKNOWN

§ Identity

Operator
Country
US
Launch date
2024-12-31
Launch site
AFETR
Launch vehicle
Mass (kg)
RCS (m²)

Purposes: comms

External: N2YO · Heavens-Above · Gunter

§ Orbital elements

Epoch: 2026-09-21T22:40:58.804320Z

Period
91.67 min
Inclination
42.9981°
Eccentricity
0.0001392
Mean motion
15.70843357 rev/d
Perigee alt
355.5 km
Apogee alt
357.4 km
Semi-major
6,734.6 km
B*
8.7268e-4
RAAN
120.3337°
Arg perigee
280.2264°
Mean anomaly
79.8447°
Rev number
10,026

§ Raw data

STARLINK-11486 [DTC]1 62467U 24254F   26264.94512505  .00113079  00000+0  87268-3 0  99972 62467  42.9981 120.3337 0001392 280.2264  79.8447 15.70843357100269

JSON: /api/v1/satellites/62467 · /tle

For live sub-satellite position, see the globe view (requires WebGL).

§ Visibility from observer

Set your observer location to see the next 7 days of passes ≥ 10°. The values pass through the URL so the page stays shareable.

No JS? Fill the form by hand. The geolocation button needs JavaScript.